www.pogodaiklimat.ru

Погода и климат >> Архив погоды >> Кувейт >> Jahra


ПОГОДА в Jahra

  • Прогноз погоды в Jahra
  • Монитор погоды в Jahra
  • Климат города

АРХИВ ПОГОДЫ в Jahra

Время (UTC), дата Ветер
(напр.,м/с)
 
Видим.   Явления Облачность Т
(С)
Тd
(С)
f
(%)
Тe
(С)
Тes
(С)
Комфортность P
(гПа)
Po
(гПа)
Тmin
(С)
Tmax
(С)
R
(мм)
R24
(мм)
S
(см)
18 12.09 З 1-2
{8}
н/о н/о +35.9 +17.3 33 +39 +39 очень
душно
1007.9 1008.0
21 12.09 З 2-2
{3}
н/о н/о +33.5 +8.5 21 +36 +36 очень
душно
1007.2 1007.0 +28.6 +46.6
00 13.09 З 2-5
{5}
н/о н/о +33.3 -0.1 12 +30 +30 жарко 1007.1 1007.0
03 13.09 З 3-4
{6}
н/о н/о +31.8 -1.3 12 +28 +28 жарко 1007.6 1008.0
06 13.09 СЗ 3-6
{8}
н/о н/о +41.5 -0.6 7 +38 +38 очень
жарко
1008.0 1008.0
09 13.09 СЗ 5-12
{13}
н/о н/о +45.3 -5.6 4 +41 +41 опасность
перегрева
1006.2 1006.0
12 13.09 СЗ 4-12
{15}
н/о н/о +45.7 -5.1 4 +41 +41 опасность
перегрева
1004.3 1004.0
15 13.09 СЗ 2-7
{12}
н/о н/о +43.1 -2.8 6 +39 +39 очень
жарко
1004.6 1005.0
18 13.09 СЗ 2-7
{12}
н/о н/о +40.2 -3.5 6 +36 +36 очень
жарко
1005.4 1005.0
21 13.09 З 3-6
{8}
н/о н/о +36.0 -2.8 8 +32 +32 жарко 1004.8 1005.0 +31.1 +46.3
00 14.09 З 4-7
{8}
н/о н/о +34.1 -2.2 10 +30 +30 жарко 1004.7 1005.0
03 14.09 З 3-6
{7}
н/о н/о +32.6 -1.5 11 +29 +29 жарко 1005.6 1006.0
06 14.09 З 4-7
{9}
н/о н/о +40.4 -2.2 7 +36 +36 очень
жарко
1006.3 1006.0
09 14.09 СЗ 5-11
{11}
н/о н/о +45.0 -5.7 4 +41 +41 опасность
перегрева
1004.7 1005.0
12 14.09 СЗ 3-8
{13}
н/о н/о +45.5 -7.4 4 +41 +41 опасность
перегрева
1003.3 1003.0
15 14.09 С 5-8
{12}
н/о н/о +43.0 -5.2 5 +39 +39 очень
жарко
1003.5 1004.0
18 14.09 СЗ 2-4
{12}
н/о н/о +38.7 -2.9 7 +35 +35 очень
жарко
1005.3 1005.0
21 14.09 СЗ 2-5
{5}
н/о н/о +36.7 -1.7 9 +33 +33 жарко 1004.7 1005.0 +32.4 +46.2
00 15.09 С 2-5
{6}
н/о н/о +32.3 -1.5 11 +29 +29 жарко 1005.2 1005.0
03 15.09 ЮЗ 2-2
{3}
н/о н/о +28.2 -2.2 14 +25 +25 комфорт 1006.3 1006.0
06 15.09 ЮЗ 1-2
{3}
н/о н/о +37.7 -0.5 9 +34 +34 очень
жарко
1007.1 1007.0
09 15.09 З 2-4
{5}
н/о н/о +43.1 -1.2 6 +39 +39 очень
жарко
1005.8 1006.0
12 15.09 З 3-7
{10}
н/о н/о +45.3 -6.2 4 +41 +41 опасность
перегрева
1004.0 1004.0
15 15.09 СЗ 2-5
{9}
н/о н/о +41.2 -4.3 6 +37 +37 очень
жарко
1004.5 1005.0
18 15.09 ЮВ 3-4
{9}
н/о н/о +33.8 +18.9 41 +39 +39 очень
душно
1006.3 1006.0
21 15.09 ЮЗ 2-2
{4}
н/о н/о +31.4 +9.3 25 +31 +31 жарко 1005.4 1005.0 +28.1 +45.7
00 16.09 Ю 1-1
{5}
н/о н/о +29.5 +6.6 24 +28 +28 жарко 1004.5 1005.0
03 16.09 З 2-2
{3}
н/о н/о +28.2 +2.0 18 +26 +26 жарко 1006.1 1006.0
06 16.09 З 2-4
{5}
н/о н/о +37.8 +5.2 13 +35 +35 очень
жарко
1007.2 1007.0
09 16.09 С 2-4
{4}
н/о н/о +41.8 +0.9 8 +38 +38 очень
жарко
1005.4 1005.0
12 16.09 СВ 5-8
{9}
н/о н/о +42.9 +0.5 7 +39 +39 очень
жарко
1004.0 1004.0
15 16.09 ЮВ 3-6
{8}
н/о н/о +37.8 +8.1 16 +36 +36 очень
жарко
1004.7 1005.0
18 16.09 ЮВ 2-3
{8}
н/о н/о +33.0 +19.5 45 +39 +39 очень
душно
1005.8 1006.0
21 16.09 З 1-1
{3}
н/о н/о +30.9 +21.2 56 +38 +38 очень
душно
1005.7 1006.0 +28.0 +43.8
00 17.09 ЮЗ 1-2
{3}
н/о н/о +28.7 +16.0 46 +32 +32 душно 1005.3 1005.0
03 17.09 ЮВ 1-2
{4}
н/о н/о +27.3 +12.4 40 +29 +29 жарко 1006.6 1007.0
06 17.09 В 1-2
{4}
н/о н/о +36.8 +10.2 20 +36 +36 очень
жарко
1007.4 1007.0
09 17.09 ЮВ 3-6
{6}
н/о н/о +43.6 +9.2 13 +40 +40 очень
жарко
1005.7 1006.0
12 17.09 СВ 5-6
{7}
н/о н/о +43.0 +8.0 12 +41 +41 опасность
перегрева
1004.3 1004.0
15 17.09 ЮВ 2-5
{7}
н/о н/о +38.7 +5.5 13 +36 +36 очень
жарко
1004.9 1005.0
18 17.09 Ю 2-4
{7}
н/о н/о +34.4 +13.9 29 +35 +35 очень
жарко
1006.1 1006.0
21 17.09 Ю 1-1
{3}
н/о н/о +31.6 +18.4 45 +36 +36 очень
душно
1006.1 1006.0 +26.7 +45.6
00 18.09 Ю 2-3
{3}
н/о н/о +29.6 +13.4 37 +31 +31 жарко 1005.9 1006.0
03 18.09 З 2-2
{4}
н/о н/о +28.5 +16.3 48 +32 +32 душно 1007.0 1007.0
06 18.09 ЮЗ 3-5
{6}
н/о н/о +38.0 +12.3 22 +38 +38 очень
жарко
1007.5 1008.0
09 18.09 В 1-3
{6}
н/о н/о +44.8 +4.8 9 +42 +42 опасность
перегрева
1006.4 1006.0
12 18.09 Ю 1-3
{6}
н/о н/о +45.5 +4.3 8 +42 +42 опасность
перегрева
1004.6 1005.0
15 18.09 ЮВ 3-5
{7}
н/о н/о +39.4 +8.4 15 +37 +37 очень
жарко
1005.4 1005.0
18 18.09 З 1-1
{7}
н/о н/о +34.8 +16.2 33 +37 +37 очень
душно
1006.8 1007.0
21 18.09 Ю 1-3
{4}
н/о н/о +32.4 +17.0 40 +36 +36 очень
душно
1007.2 1007.0 +28.4 +46.1
00 19.09 ЮВ 3-4
{5}
н/о н/о +29.9 +16.8 45 +33 +33 душно 1006.9 1007.0
03 19.09 ЮЗ 3-5
{5}
н/о н/о +29.9 +18.3 50 +35 +35 очень
душно
1007.2 1007.0
06 19.09 З 3-5
{6}
н/о н/о +38.6 +9.9 18 +37 +37 очень
жарко
1007.9 1008.0
09 19.09 С 1-4
{6}
н/о н/о +44.6 +4.1 9 +42 +42 опасность
перегрева
1006.4 1006.0
12 19.09 СВ 4-7
{7}
н/о н/о +45.2 +3.4 8 +42 +42 опасность
перегрева
1004.9 1005.0

 

Местоположение метеостанции Jahra (Кувейт): широта 29.32 долгота 47.67 высота над уровнем моря 55 м.

В архиве по умолчанию представлена погода в Jahra за последнюю неделю. Архивные данные за месяц целиком и за предыдущие месяцы, начиная с января 2011 года, Вы можете получить, выбрав интересующий диапазон дат из раскрывающегося списка и нажав кнопку "Ввод!".

Внимание! Время в таблицах - всемирное. Для получения местного времени необходимо прибавить поправку, которая в Jahra равна 3 ч.

Смотрите также архив погоды в соседних городах и на ближайших метеорологических станциях:

Погода в Sulaibiya (Кувейт) (7 км)
Погода в Experimental Farm (Кувейт) (26 км)
Погода в Minagish (Кувейт) (31 км)
Погода в Kuwait (Кувейт) (31 км)
Погода в Shuwaikh (Кувейт) (37 км)
Погода в Al-Shuaiba (Кувейт) (42 км)
Погода в Sabriyah (Кувейт) (51 км)
Погода в Failaka Island (Кувейт) (61 км)
Погода в Mitribah (Кувейт) (63 км)
Погода в Abraque Al Habari (Кувейт) (65 км)

Пояснения к столбцам:

Ветер - указаны скорость ветра в м/с - средняя за 10 мин, порывы в срок и между сроками (в фигурных скобках) и направление, откуда дует ветер: С - северный, СВ - северо-восточный, В - восточный, ЮВ - юго-восточный, Ю - южный, ЮЗ - юго-западный, З - западный, СЗ - северо-западный.
Видимость - горизонтальная дальность видимости в метрах или километрах. При видимости от 1 до 10 км при отсутствии осадков обычно наблюдается дымка, при ухудшении видимости до 1 км и менее - туман. В сухую погоду видимость может ухудшаться дымом, пылью или мглою.
Явления - указаны атмосферные явления, наблюдавшиеся в срок или в последний час перед сроком; фигурными скобками обозначены явления, наблюдавшиеся между сроками (за 1-3 часа до срока); квадратными скобками обозначены град или гололедные отложения с указанием их диаметра в мм.
Облачность - указаны через наклонную черту общая и нижняя облачность в баллах и высота нижней границы облаков в метрах; квадратными скобками обозначены формы облаков: Ci - перистые, Cs - перисто-слоистые, Cc - перисто-кучевые, Ac - высококучевые, As - высокослоистые, Sc - слоисто-кучевые, Ns - слоисто-дождевые, Cu - кучевые, Cb - кучево-дождевые. Подробнее классификацию облаков см. в Атласе облаков (PDF).
T - Температура воздуха - температура, измеренная на высоте 2 м над землей.
Td - Температура точки росы - температура, при понижении до которой содержащийся в воздухе водяной пар достигнет насыщения.
f - Относительная влажность воздуха - влажноcть воздуха, измеренная на высоте 2 м над землей.
Te - Эффективная температура - температура, которую ощущает одетый по сезону человек в тени. Характеристика душности погоды. При расчете учитывается влияние влажности воздуха и скорости ветра на теплоощущения человека.
Tes - Эффективная температура на солнце - температура, которую ощущает человек, с поправкой на солнечный нагрев. Характеристика знойности погоды. Зависит от высоты солнца над горизонтом, облачности и скорости ветра. Ночью, в пасмурную погоду, а также при ветре 12 м/с и более поправка равна нулю.
P - Атмосферное давление - приведенное к уровню моря атмосферное давление.
Po - Атмосферное давление - измеренное на уровне метеостанции атмосферное давление.
Tmin - Минимальная температура - минимум температуры воздуха на высоте 2 м над землей.
Tmax - Максимальная температура - максимум температуры воздуха на высоте 2 м над землей.
R - Количество осадков - Количество выпавших осадков за период времени, мм. При наведении курсора мыши на число - период времени, за который выпало указанное количество осадков.
R24 - Количество осадков - Количество выпавших осадков за 24 часа, мм.
S - Снежный покров - Высота снежного покрова, см. При наведении курсора мыши на число - состояние снежного покрова и степень покрытия местности в баллах.